Home > Weather > Wittlich > Past weeks

Flag for Germany Past Weather in Wittlich, Rhineland-Palatinate, Germany — Yesterday and Last 2 Weeks

Now
70 °F

Scattered clouds.


Feels Like: 70 °F
Forecast: 53 / 71 °F
Wind: 6 mph from Northwest

Location: Spangdahlem

Current Time: Jul 30, 2016 at 8:57:39 PM

Latest Report: Jul 30, 2016 at 7:58 PM


Visibility: N/A

Pressure: 29.88 "Hg

Humidity: 60%

Dew Point: 55 °F

Location of WittlichLocation

Past Weather in Wittlich — Graph

°F

Wittlich Temperature Yesterday

Maximum temperature yesterday: 73 °F (at 3:03 PM)
Minimum temperature yesterday: 59 °F (at 1:58 AM)
Average temperature yesterday: 65 °F

High & Low Weather Summary for the Past Weeks

 TemperatureHumidityPressure
High91 °F (Jul 20, 5:58 PM)100% (Jul 21, 4:58 AM)30.33 "Hg (Jul 21, 4:58 AM)
Low51 °F (Jul 16, 2:58 AM)29% (Jul 20, 5:58 PM)29.86 "Hg (Jul 20, 5:58 PM)
Average68 °F75%30.05 "Hg
* Reported Jul 15 6:58 PM — Jul 30 6:58 PM, Wittlich, Weather by CustomWeather, © 2016

Note: Actual official high and low records may vary slightly from our data, if they occured in-between our weather recording intervals... More about our weather records

Advertising

Wittlich Weather History for the Previous 24 Hours

Scroll right to see more
 ConditionsComfort  
Time TempWeatherWind HumidityBarometerVisibility
6:58 PM
Sat, Jul 30
71 °FScattered clouds.3 mph58%29.88 "HgN/A
6:01 PM72 °FScattered clouds.8 mph53%29.94 "HgN/A
5:58 PM72 °FPartly sunny.8 mph53%29.88 "HgN/A
4:58 PM73 °FScattered clouds.9 mph53%29.89 "HgN/A
3:58 PM73 °FScattered clouds.8 mph53%29.88 "HgN/A
2:58 PM72 °FScattered clouds.10 mph54%29.90 "HgN/A
1:58 PM71 °FScattered clouds.9 mph58%29.90 "HgN/A
12:58 PM69 °FPassing clouds.7 mph59%29.91 "HgN/A
11:58 AM70 °FPassing clouds.12 mph57%29.90 "HgN/A
10:58 AM66 °FBroken clouds.8 mph64%29.91 "HgN/A
9:58 AM66 °FPassing clouds.8 mph64%29.91 "HgN/A
8:58 AM65 °FPassing clouds.7 mph73%29.90 "HgN/A
7:58 AM63 °FScattered clouds.3 mph83%29.90 "HgN/A
6:58 AM60 °FPassing clouds.5 mph96%29.90 "HgN/A
6:04 AM59 °FPassing clouds.3 mph100%29.95 "HgN/A
5:58 AM59 °FPassing clouds.3 mph100%29.89 "HgN/A
4:58 AM61 °FPassing clouds.5 mph94%29.88 "HgN/A
3:58 AM63 °FPassing clouds.5 mph88%29.95 "HgN/A
2:58 AM63 °FOvercast.6 mph88%29.88 "HgN/A
1:58 AM63 °FPassing clouds.6 mph88%29.89 "HgN/A
12:58 AM63 °FPassing clouds.7 mph88%29.89 "HgN/A
12:00 AM64 °FPassing clouds.3 mph88%29.95 "HgN/A
11:58 PM
Fri, Jul 29
64 °FPassing clouds.5 mph83%29.90 "HgN/A
10:59 PM63 °FPassing clouds.3 mph88%29.96 "HgN/A
10:58 PM63 °FPartly cloudy.3 mph86%29.90 "HgN/A
9:58 PM65 °FPassing clouds.6 mph81%29.90 "HgN/A
8:58 PM68 °FScattered clouds.7 mph73%29.88 "HgN/A
Weather by CustomWeather, © 2016

See weather overviewHow to use our weather pages